Home > Weather > Lucerne > Past weeks

Flag for Switzerland Past Weather in Lucerne, Lucerne, Switzerland — Yesterday and Last 2 Weeks

Now
63 °F

Mild.


Feels Like: 63 °F
Forecast: 59 / 78 °F
Wind: 1 mph from Southwest

Location: Giswil

Current Time: Jul 24, 2016 at 5:11:09 AM

Latest Report: Jul 24, 2016 at 4:00 AM


Visibility: N/A

Pressure: 30.11 "Hg

Humidity: 94%

Dew Point: 62 °F

Location of LucerneLocation

Past Weather in Lucerne — Graph

°F

Lucerne Temperature Yesterday

Maximum temperature yesterday: 73 °F (at 3:00 PM)
Minimum temperature yesterday: 61 °F (at 5:00 AM)
Average temperature yesterday: 67 °F

High & Low Weather Summary for the Past Weeks

 TemperatureHumidityPressure
High88 °F (Jul 20, 5:00 PM)100% (Jul 16, 5:00 AM)30.39 "Hg (Jul 16, 5:00 AM)
Low44 °F (Jul 16, 6:00 AM)38% (Jul 20, 4:00 PM)29.85 "Hg (Jul 10, 7:00 PM)
Average66 °F79%30.09 "Hg
* Reported Jul 9 3:00 AM — Jul 24 3:00 AM, Lucerne, Weather by CustomWeather, © 2016

Note: Actual official high and low records may vary slightly from our data, if they occured in-between our weather recording intervals... More about our weather records

Advertising

Lucerne Weather History for the Previous 24 Hours

Scroll right to see more
 ConditionsComfort  
Time TempWeatherWind HumidityBarometerVisibility
3:00 AM
Sun, Jul 24
64 °FMild.1 mph96%30.12 "HgN/A
2:00 AM63 °FMild.2 mph96%30.12 "HgN/A
1:00 AM64 °FMild.1 mph91%30.12 "HgN/A
12:00 AM64 °FMild.1 mph95%30.12 "HgN/A
11:00 PM
Sat, Jul 23
65 °FMild.3 mph90%30.11 "HgN/A
10:00 PM65 °FMild.2 mph92%30.09 "HgN/A
9:00 PM68 °FMild.3 mph85%30.06 "HgN/A
8:00 PM71 °FMild.1 mph83%30.03 "HgN/A
7:00 PM71 °FMild.2 mph84%30.03 "HgN/A
6:00 PM71 °FMild.3 mph85%30.03 "HgN/A
5:00 PM70 °FMild.3 mph86%30.04 "HgN/A
4:00 PM72 °FMild.1 mph73%30.03 "HgN/A
3:00 PM73 °FMild.1 mph70%30.02 "HgN/A
2:00 PM73 °FMild.2 mph72%30.03 "HgN/A
1:00 PM73 °FMild.3 mph73%30.03 "HgN/A
12:00 PM72 °FMild.2 mph72%30.02 "HgN/A
11:00 AM71 °FMild.2 mph75%30.03 "HgN/A
10:00 AM70 °FMild.3 mph79%30.02 "HgN/A
9:00 AM67 °FMild.1 mph85%30.03 "HgN/A
8:00 AM65 °FMild.1 mph91%30.03 "HgN/A
7:00 AM63 °FMild.2 mph99%30.03 "HgN/A
6:00 AM62 °FCool.1 mph99%30.04 "HgN/A
5:00 AM61 °FCool.2 mph99%30.05 "HgN/A
Weather by CustomWeather, © 2016

See weather overviewHow to use our weather pages